,,PA_Meas_PMT16A,,PR_Meas_QMR101_102,,RH_Meas_QMH101,,SR_Meas_QMS101,,TA_Meas_QMH101,,GenWind,,GenWind,
time,status,PA,status,PR,status,RH,status,SR,status,TA,status,DirAvg,status,SpdAvg,
2013-03-19, 00:00:05,VALID,917.147,VALID,0,VALID,95.1631,VALID,0,VALID,20.2489,VALID,280,VALID,0,
2013-03-19, 00:01:05,VALID,917.151,VALID,0,VALID,95.3003,VALID,0,VALID,20.1708,VALID,280,VALID,0,
2013-03-19, 00:02:05,VALID,917.143,VALID,0,VALID,95.4147,VALID,0,VALID,20.1318,VALID,280,VALID,0,
2013-03-19, 00:03:05,VALID,917.109,VALID,0,VALID,95.5519,VALID,0,VALID,20.1334,VALID,280,VALID,0,
2013-03-19, 00:04:05,VALID,917.098,VALID,0,VALID,95.6967,VALID,0,VALID,20.1123,VALID,280,VALID,0,
2013-03-19, 00:05:05,VALID,917.12,VALID,0,VALID,95.7654,VALID,0,VALID,20.0928,VALID,280,VALID,0,
2013-03-19, 00:06:05,VALID,917.071,VALID,0,VALID,95.8187,VALID,0,VALID,20.0733,VALID,280,VALID,0,
2013-03-19, 00:07:05,VALID,917.113,VALID,0,VALID,95.8797,VALID,0,VALID,20.0928,VALID,280,VALID,0,
2013-03-19, 00:08:05,VALID,917.09,VALID,0,VALID,95.9636,VALID,0,VALID,20.0928,VALID,280,VALID,0,
2013-03-19, 00:09:05,VALID,917.105,VALID,0,VALID,96.0169,VALID,0,VALID,20.1123,VALID,280,VALID,0,
2013-03-19, 00:10:05,VALID,917.103,VALID,0,VALID,96.0703,VALID,0,VALID,20.1513,VALID,280,VALID,0,
2013-03-19, 00:11:05,VALID,917.103,VALID,0,VALID,96.1313,VALID,0,VALID,20.1513,VALID,280,VALID,0,
2013-03-19, 00:12:05,VALID,917.085,VALID,0,VALID,96.1465,VALID,0,VALID,20.1318,VALID,280,VALID,0,
2013-03-19, 00:13:05,VALID,917.043,VALID,0,VALID,96.1618,VALID,0,VALID,20.1529,VALID,280,VALID,0,
2013-03-19, 00:14:05,VALID,917.026,VALID,0,VALID,96.2151,VALID,0,VALID,20.1919,VALID,280,VALID,0,
2013-03-19, 00:15:05,VALID,916.994,VALID,0,VALID,96.2533,VALID,0,VALID,20.1693,VALID,280,VALID,0,
2013-03-19, 00:16:05,VALID,916.985,VALID,0,VALID,96.2685,VALID,0,VALID,20.1708,VALID,280,VALID,0,
2013-03-19, 00:17:05,VALID,916.973,VALID,0,VALID,96.2837,VALID,0,VALID,20.1513,VALID,280,VALID,0,
2013-03-19, 00:18:05,VALID,916.96,VALID,0,VALID,96.3371,VALID,0,VALID,20.1724,VALID,280,VALID,0,
2013-03-19, 00:19:05,VALID,916.952,VALID,0,VALID,96.3524,VALID,0,VALID,20.1708,VALID,280,VALID,0,
2013-03-19, 00:20:05,VALID,916.985,VALID,0,VALID,96.3829,VALID,0,VALID,20.1513,VALID,280,VALID,0,
2013-03-19, 00:21:05,VALID,916.975,VALID,0,VALID,96.3981,VALID,0,VALID,20.1724,VALID,144,VALID,0,
2013-03-19, 00:22:05,VALID,916.936,VALID,0,VALID,96.4286,VALID,0,VALID,20.1919,VALID,156,VALID,0,
2013-03-19, 00:23:05,VALID,916.914,VALID,0,VALID,96.4591,VALID,0,VALID,20.2114,VALID,158,VALID,0,
2013-03-19, 00:24:05,VALID,916.902,VALID,0,VALID,96.4819,VALID,0,VALID,20.2098,VALID,142,VALID,0,
2013-03-19, 00:25:05,VALID,916.881,VALID,0,VALID,96.4896,VALID,0,VALID,20.2114,VALID,142,VALID,0,
2013-03-19, 00:26:05,VALID,916.847,VALID,0,VALID,96.4972,VALID,0,VALID,20.1903,VALID,139,VALID,0,
2013-03-19, 00:27:05,VALID,916.856,VALID,0,VALID,96.5277,VALID,0,VALID,20.2114,VALID,135,VALID,0,
2013-03-19, 00:28:04,VALID,916.859,VALID,0,VALID,96.5201,VALID,0,VALID,20.2114,VALID,136,VALID,0,
2013-03-19, 00:29:04,VALID,916.863,VALID,0,VALID,96.5506,VALID,0,VALID,20.1903,VALID,115,VALID,0,
2013-03-19, 00:30:04,VALID,916.865,VALID,0,VALID,96.5734,VALID,0,VALID,20.2309,VALID,115,VALID,0,
2013-03-19, 00:31:04,VALID,916.874,VALID,0,VALID,96.5887,VALID,0,VALID,20.2309,VALID,115,VALID,0,
2013-03-19, 00:32:04,VALID,916.81,VALID,0,VALID,96.5734,VALID,0,VALID,20.2309,VALID,142,VALID,0,
2013-03-19, 00:33:04,VALID,916.799,VALID,0,VALID,96.6115,VALID,0,VALID,20.2098,VALID,149,VALID,0,
2013-03-19, 00:34:04,VALID,916.761,VALID,0,VALID,96.6268,VALID,0,VALID,20.2504,VALID,149,VALID,0,
2013-03-19, 00:35:04,VALID,916.74,VALID,0,VALID,96.6344,VALID,0,VALID,20.2504,VALID,149,VALID,0,
2013-03-19, 00:36:04,VALID,916.659,VALID,0,VALID,96.6268,VALID,0,VALID,20.2489,VALID,162,VALID,0,
2013-03-19, 00:37:04,VALID,916.671,VALID,0,VALID,96.6649,VALID,0,VALID,20.2894,VALID,168,VALID,0,
2013-03-19, 00:38:04,VALID,916.683,VALID,0,VALID,96.6649,VALID,0,VALID,20.2894,VALID,168,VALID,0,
2013-03-19, 00:39:04,VALID,916.683,VALID,0,VALID,96.6725,VALID,0,VALID,20.2894,VALID,168,VALID,0,
2013-03-19, 00:40:04,VALID,916.67,VALID,0,VALID,96.6725,VALID,0,VALID,20.2894,VALID,168,VALID,0,
2013-03-19, 00:41:04,VALID,916.679,VALID,0,VALID,96.6878,VALID,0,VALID,20.2879,VALID,168,VALID,0,
2013-03-19, 00:42:04,VALID,916.679,VALID,0,VALID,96.703,VALID,0,VALID,20.3089,VALID,168,VALID,0,
2013-03-19, 00:43:04,VALID,916.666,VALID,0,VALID,96.7107,VALID,0,VALID,20.2879,VALID,168,VALID,0,
2013-03-19, 00:44:04,VALID,916.661,VALID,0,VALID,96.6954,VALID,0,VALID,20.3089,VALID,168,VALID,0,
2013-03-19, 00:45:04,VALID,916.636,VALID,0,VALID,96.7183,VALID,0,VALID,20.2879,VALID,168,VALID,0,
2013-03-19, 00:46:04,VALID,916.633,VALID,0,VALID,96.7107,VALID,0,VALID,20.2879,VALID,168,VALID,0,
2013-03-19, 00:47:04,VALID,916.614,VALID,0,VALID,96.7335,VALID,0,VALID,20.3089,VALID,168,VALID,0,
2013-03-19, 00:48:04,VALID,916.611,VALID,0,VALID,96.7259,VALID,0,VALID,20.2684,VALID,168,VALID,0,
2013-03-19, 00:49:04,VALID,916.578,VALID,0,VALID,96.7183,VALID,0,VALID,20.2699,VALID,168,VALID,0,
2013-03-19, 00:50:04,VALID,916.545,VALID,0,VALID,96.7183,VALID,0,VALID,20.2504,VALID,168,VALID,0,
2013-03-19, 00:51:04,VALID,916.538,VALID,0,VALID,96.7183,VALID,0,VALID,20.2504,VALID,168,VALID,0,
2013-03-19, 00:52:04,VALID,916.512,VALID,0,VALID,96.7411,VALID,0,VALID,20.2293,VALID,192,VALID,0,
2013-03-19, 00:53:04,VALID,916.508,VALID,0,VALID,96.7488,VALID,0,VALID,20.2504,VALID,192,VALID,0,
2013-03-19, 00:54:04,VALID,916.48,VALID,0,VALID,96.7488,VALID,0,VALID,20.2504,VALID,192,VALID,0,
2013-03-19, 00:55:04,VALID,916.469,VALID,0,VALID,96.7488,VALID,0,VALID,20.2504,VALID,192,VALID,0,
2013-03-19, 00:56:04,VALID,916.446,VALID,0,VALID,96.7564,VALID,0,VALID,20.2293,VALID,192,VALID,0,
2013-03-19, 00:57:04,VALID,916.398,VALID,0,VALID,96.7716,VALID,0,VALID,20.2098,VALID,192,VALID,0,
2013-03-19, 00:58:04,VALID,916.398,VALID,0,VALID,96.764,VALID,0,VALID,20.2098,VALID,192,VALID,0,
2013-03-19, 00:59:04,VALID,916.406,VALID,0,VALID,96.7716,VALID,0,VALID,20.2098,VALID,192,VALID,0,
2013-03-19, 01:00:04,VALID,916.389,VALID,0,VALID,96.7716,VALID,0,VALID,20.2309,VALID,192,VALID,0,
2013-03-19, 01:01:04,VALID,916.342,VALID,0,VALID,96.7716,VALID,0,VALID,20.2114,VALID,192,VALID,0,
2013-03-19, 01:02:04,VALID,916.367,VALID,0,VALID,96.7869,VALID,0,VALID,20.2114,VALID,192,VALID,0,
2013-03-19, 01:03:04,VALID,916.323,VALID,0,VALID,96.7869,VALID,0,VALID,20.2309,VALID,192,VALID,0,
2013-03-19, 01:04:04,VALID,916.324,VALID,0,VALID,96.8021,VALID,0,VALID,20.2114,VALID,192,VALID,0,
2013-03-19, 01:05:04,VALID,916.272,VALID,0,VALID,96.8098,VALID,0,VALID,20.2114,VALID,192,VALID,0,
2013-03-19, 01:06:04,VALID,916.263,VALID,0,VALID,96.825,VALID,0,VALID,20.2114,VALID,192,VALID,0,
2013-03-19, 01:07:04,VALID,916.245,VALID,0,VALID,96.8174,VALID,0,VALID,20.1919,VALID,192,VALID,0,
2013-03-19, 01:08:04,VALID,916.263,VALID,0,VALID,96.8098,VALID,0,VALID,20.1919,VALID,192,VALID,0,
2013-03-19, 01:09:04,VALID,916.268,VALID,0,VALID,96.8326,VALID,0,VALID,20.1724,VALID,192,VALID,0,
2013-03-19, 01:10:04,VALID,916.276,VALID,0,VALID,96.8174,VALID,0,VALID,20.1724,VALID,192,VALID,0,
2013-03-19, 01:11:04,VALID,916.24,VALID,0,VALID,96.8098,VALID,0,VALID,20.1529,VALID,192,VALID,0,
2013-03-19, 01:12:04,VALID,916.235,VALID,0,VALID,96.825,VALID,0,VALID,20.1529,VALID,192,VALID,0,
2013-03-19, 01:13:04,VALID,916.248,VALID,0,VALID,96.8174,VALID,0,VALID,20.1724,VALID,192,VALID,0,
2013-03-19, 01:14:04,VALID,916.206,VALID,0,VALID,96.825,VALID,0,VALID,20.1513,VALID,192,VALID,0,
2013-03-19, 01:15:04,VALID,916.249,VALID,0,VALID,96.8479,VALID,0,VALID,20.1708,VALID,192,VALID,0,
2013-03-19, 01:16:04,VALID,916.259,VALID,0,VALID,96.8479,VALID,0,VALID,20.1919,VALID,192,VALID,0,
2013-03-19, 01:17:04,VALID,916.236,VALID,0,VALID,96.8631,VALID,0,VALID,20.1903,VALID,192,VALID,0,
2013-03-19, 01:18:04,VALID,916.259,VALID,0,VALID,96.8707,VALID,0,VALID,20.2309,VALID,192,VALID,0,
2013-03-19, 01:19:04,VALID,916.261,VALID,0,VALID,96.8555,VALID,0,VALID,20.1708,VALID,166,VALID,0,
2013-03-19, 01:20:04,VALID,916.295,VALID,0,VALID,96.8555,VALID,0,VALID,20.1318,VALID,145,VALID,0,
2013-03-19, 01:21:04,VALID,916.31,VALID,0,VALID,96.8479,VALID,0,VALID,20.0928,VALID,145,VALID,0,
2013-03-19, 01:22:04,VALID,916.315,VALID,0,VALID,96.8707,VALID,0,VALID,20.0733,VALID,145,VALID,0,
2013-03-19, 01:23:04,VALID,916.322,VALID,0,VALID,96.8555,VALID,0,VALID,20.0733,VALID,145,VALID,0,
2013-03-19, 01:24:04,VALID,916.303,VALID,0,VALID,96.8784,VALID,0,VALID,20.0733,VALID,145,VALID,0,
2013-03-19, 01:25:04,VALID,916.285,VALID,0,VALID,96.8631,VALID,0.107441,VALID,20.0749,VALID,145,VALID,0,
2013-03-19, 01:26:04,VALID,916.264,VALID,0,VALID,96.8631,VALID,0,VALID,20.0538,VALID,145,VALID,0,
2013-03-19, 01:27:04,VALID,916.206,VALID,0,VALID,96.8707,VALID,0,VALID,20.0749,VALID,145,VALID,0,
2013-03-19, 01:28:04,VALID,916.18,VALID,0,VALID,96.8936,VALID,0,VALID,20.0553,VALID,145,VALID,0,
2013-03-19, 01:29:04,VALID,916.14,VALID,0,VALID,96.8784,VALID,0,VALID,20.0343,VALID,145,VALID,0,
2013-03-19, 01:30:04,VALID,916.155,VALID,0,VALID,96.8707,VALID,0,VALID,20.0343,VALID,145,VALID,0,
2013-03-19, 01:31:04,VALID,916.132,VALID,0,VALID,96.8784,VALID,0,VALID,20.0749,VALID,145,VALID,0,
2013-03-19, 01:32:04,VALID,916.119,VALID,0,VALID,96.9012,VALID,0,VALID,20.0749,VALID,145,VALID,0,
2013-03-19, 01:33:04,VALID,916.099,VALID,0,VALID,96.9089,VALID,0,VALID,20.0733,VALID,145,VALID,0,
2013-03-19, 01:34:04,VALID,916.093,VALID,0,VALID,96.9089,VALID,0,VALID,20.0538,VALID,145,VALID,0,
2013-03-19, 01:35:04,VALID,916.054,VALID,0,VALID,96.9165,VALID,0,VALID,20.0749,VALID,145,VALID,0,
2013-03-19, 01:36:04,VALID,916.048,VALID,0,VALID,96.9012,VALID,0,VALID,20.0553,VALID,145,VALID,0,
2013-03-19, 01:37:04,VALID,916.045,VALID,0,VALID,96.9089,VALID,0,VALID,20.0343,VALID,145,VALID,0,
2013-03-19, 01:38:04,VALID,916.026,VALID,0,VALID,96.9089,VALID,0,VALID,20.0343,VALID,145,VALID,0,
2013-03-19, 01:39:04,VALID,916.048,VALID,0,VALID,96.9317,VALID,0,VALID,19.9953,VALID,145,VALID,0,
2013-03-19, 01:40:04,VALID,916.036,VALID,0,VALID,96.9089,VALID,0,VALID,19.9758,VALID,145,VALID,0,
2013-03-19, 01:41:04,VALID,916.021,VALID,0,VALID,96.9241,VALID,0,VALID,19.9968,VALID,145,VALID,0,
2013-03-19, 01:42:04,VALID,916.016,VALID,0,VALID,96.9241,VALID,0,VALID,19.9758,VALID,145,VALID,0,
2013-03-19, 01:43:04,VALID,916.002,VALID,0,VALID,96.9165,VALID,0,VALID,19.9968,VALID,145,VALID,0,
2013-03-19, 01:44:04,VALID,916.019,VALID,0,VALID,96.9394,VALID,0,VALID,20.0163,VALID,145,VALID,0,
2013-03-19, 01:45:04,VALID,915.983,VALID,0,VALID,96.9165,VALID,0,VALID,20.0163,VALID,145,VALID,0,
2013-03-19, 01:46:04,VALID,915.972,VALID,0,VALID,96.9546,VALID,0,VALID,19.9758,VALID,145,VALID,0,
2013-03-19, 01:47:04,VALID,915.958,VALID,0,VALID,96.9394,VALID,0,VALID,19.9968,VALID,145,VALID,0,
2013-03-19, 01:48:04,VALID,915.971,VALID,0,VALID,96.9546,VALID,0,VALID,19.9968,VALID,145,VALID,0,
2013-03-19, 01:49:04,VALID,915.952,VALID,0,VALID,96.9622,VALID,0,VALID,20.0358,VALID,145,VALID,0,
2013-03-19, 01:50:04,VALID,915.954,VALID,0,VALID,96.9546,VALID,0,VALID,20.0343,VALID,145,VALID,0,
2013-03-19, 01:51:04,VALID,915.979,VALID,0,VALID,96.9622,VALID,0,VALID,20.0553,VALID,145,VALID,0,
2013-03-19, 01:52:04,VALID,916.03,VALID,0,VALID,96.9622,VALID,0,VALID,20.0538,VALID,145,VALID,0,
2013-03-19, 01:53:04,VALID,916.039,VALID,0,VALID,96.9698,VALID,0,VALID,20.0749,VALID,145,VALID,0,
2013-03-19, 01:54:04,VALID,916.083,VALID,0,VALID,96.9622,VALID,0,VALID,20.0944,VALID,145,VALID,0,
2013-03-19, 01:55:04,VALID,916.027,VALID,0,VALID,96.9622,VALID,0,VALID,20.0944,VALID,145,VALID,0,
2013-03-19, 01:56:04,VALID,916.035,VALID,0,VALID,96.9622,VALID,0,VALID,20.0749,VALID,146,VALID,0,
2013-03-19, 01:57:04,VALID,915.994,VALID,0,VALID,96.9851,VALID,0,VALID,20.0749,VALID,169,VALID,0,
2013-03-19, 01:58:04,VALID,915.99,VALID,0,VALID,96.9851,VALID,0,VALID,20.0944,VALID,170,VALID,0,
2013-03-19, 01:59:04,VALID,915.983,VALID,0,VALID,96.9927,VALID,0,VALID,20.0944,VALID,173,VALID,0,
2013-03-19, 02:00:04,VALID,915.95,VALID,0,VALID,96.9775,VALID,0,VALID,20.0733,VALID,131,VALID,0,
2013-03-19, 02:01:04,VALID,915.95,VALID,0,VALID,97.0003,VALID,0,VALID,20.1139,VALID,130,VALID,0,
2013-03-19, 02:02:04,VALID,915.987,VALID,0,VALID,96.9927,VALID,0,VALID,20.1334,VALID,132,VALID,0,
2013-03-19, 02:03:04,VALID,915.991,VALID,0,VALID,97.0003,VALID,0,VALID,20.1123,VALID,134,VALID,0,
2013-03-19, 02:04:04,VALID,915.998,VALID,0,VALID,97.0003,VALID,0,VALID,20.1139,VALID,124,VALID,0,
2013-03-19, 02:05:04,VALID,915.992,VALID,0,VALID,97.008,VALID,0,VALID,20.0733,VALID,169,VALID,0,
2013-03-19, 02:06:04,VALID,916.004,VALID,0,VALID,96.9927,VALID,0,VALID,20.0733,VALID,123,VALID,0,
2013-03-19, 02:07:04,VALID,915.986,VALID,0,VALID,97.0003,VALID,0,VALID,20.0944,VALID,133,VALID,0,
2013-03-19, 02:08:04,VALID,916.009,VALID,0,VALID,97.008,VALID,0,VALID,20.0538,VALID,133,VALID,0,
2013-03-19, 02:09:04,VALID,915.999,VALID,0,VALID,97.0003,VALID,0,VALID,20.0749,VALID,133,VALID,0,
2013-03-19, 02:10:04,VALID,916.034,VALID,0,VALID,96.9927,VALID,0,VALID,20.0538,VALID,130,VALID,0,
2013-03-19, 02:11:04,VALID,916.02,VALID,0,VALID,97.008,VALID,0,VALID,20.0749,VALID,130,VALID,0,
2013-03-19, 02:12:04,VALID,916.016,VALID,0,VALID,97.0156,VALID,0,VALID,20.0749,VALID,128,VALID,0,
2013-03-19, 02:13:04,VALID,916.006,VALID,0,VALID,97.0003,VALID,0,VALID,20.0749,VALID,117,VALID,0,
2013-03-19, 02:14:04,VALID,915.973,VALID,0,VALID,97.0156,VALID,0,VALID,20.0553,VALID,106,VALID,0,
2013-03-19, 02:15:04,VALID,915.941,VALID,0,VALID,97.0156,VALID,0,VALID,20.0553,VALID,121,VALID,0,
2013-03-19, 02:16:04,VALID,915.959,VALID,0,VALID,97.0156,VALID,0,VALID,20.0538,VALID,125,VALID,0,
2013-03-19, 02:17:04,VALID,915.933,VALID,0,VALID,97.0308,VALID,0,VALID,20.0553,VALID,125,VALID,0,
2013-03-19, 02:18:04,VALID,915.917,VALID,0,VALID,97.0308,VALID,0,VALID,20.0553,VALID,114,VALID,0,
2013-03-19, 02:19:04,VALID,915.914,VALID,0,VALID,97.0385,VALID,0,VALID,20.0343,VALID,79,VALID,0,
2013-03-19, 02:20:04,VALID,915.93,VALID,0,VALID,97.008,VALID,0,VALID,20.0148,VALID,79,VALID,0,
2013-03-19, 02:21:04,VALID,915.914,VALID,0,VALID,97.0461,VALID,0,VALID,20.0343,VALID,79,VALID,0,
2013-03-19, 02:22:04,VALID,915.886,VALID,0,VALID,97.0385,VALID,0,VALID,20.0343,VALID,79,VALID,0,
2013-03-19, 02:23:04,VALID,915.863,VALID,0,VALID,97.0461,VALID,0,VALID,20.0553,VALID,79,VALID,0,
2013-03-19, 02:24:04,VALID,915.842,VALID,0,VALID,97.0461,VALID,0,VALID,20.0358,VALID,117,VALID,0,
2013-03-19, 02:25:04,VALID,915.833,VALID,0,VALID,97.0461,VALID,0,VALID,20.0163,VALID,114,VALID,0,
2013-03-19, 02:26:04,VALID,915.813,VALID,0,VALID,97.0308,VALID,0,VALID,19.9968,VALID,114,VALID,0,
2013-03-19, 02:27:04,VALID,915.787,VALID,0,VALID,97.0385,VALID,0,VALID,19.9758,VALID,119,VALID,0,
2013-03-19, 02:28:04,VALID,915.769,VALID,0,VALID,97.0537,VALID,0,VALID,19.9758,VALID,119,VALID,0,
2013-03-19, 02:29:04,VALID,915.759,VALID,0,VALID,97.0537,VALID,0,VALID,19.9758,VALID,118,VALID,0,
2013-03-19, 02:30:04,VALID,915.745,VALID,0,VALID,97.0537,VALID,0,VALID,19.9968,VALID,107,VALID,0,
2013-03-19, 02:31:04,VALID,915.701,VALID,0,VALID,97.0461,VALID,0,VALID,19.9758,VALID,111,VALID,0,
2013-03-19, 02:32:04,VALID,915.75,VALID,0,VALID,97.0461,VALID,0,VALID,19.9968,VALID,111,VALID,0,
2013-03-19, 02:33:04,VALID,915.735,VALID,0,VALID,97.0842,VALID,0,VALID,19.9968,VALID,111,VALID,0,
2013-03-19, 02:34:04,VALID,915.738,VALID,0,VALID,97.0613,VALID,0,VALID,19.9968,VALID,111,VALID,0,
2013-03-19, 02:35:04,VALID,915.749,VALID,0,VALID,97.069,VALID,0,VALID,19.9968,VALID,111,VALID,0,
2013-03-19, 02:36:04,VALID,915.722,VALID,0,VALID,97.0842,VALID,0,VALID,19.9953,VALID,115,VALID,0,
2013-03-19, 02:37:04,VALID,915.708,VALID,0,VALID,97.0766,VALID,0,VALID,19.9758,VALID,119,VALID,0,
2013-03-19, 02:38:04,VALID,915.71,VALID,0,VALID,97.0766,VALID,0,VALID,19.9563,VALID,119,VALID,0,
2013-03-19, 02:39:04,VALID,915.716,VALID,0,VALID,97.0766,VALID,0,VALID,19.9578,VALID,119,VALID,0,
2013-03-19, 02:40:04,VALID,915.659,VALID,0,VALID,97.0766,VALID,0,VALID,19.9578,VALID,118,VALID,0,
2013-03-19, 02:41:04,VALID,915.662,VALID,0,VALID,97.0918,VALID,0,VALID,19.9953,VALID,119,VALID,0,
2013-03-19, 02:42:04,VALID,915.588,VALID,0,VALID,97.069,VALID,0,VALID,19.9968,VALID,119,VALID,0,
2013-03-19, 02:43:04,VALID,915.604,VALID,0,VALID,97.0918,VALID,0,VALID,20.0163,VALID,119,VALID,0,
2013-03-19, 02:44:04,VALID,915.578,VALID,0,VALID,97.0994,VALID,0,VALID,20.0163,VALID,119,VALID,0,
2013-03-19, 02:45:04,VALID,915.582,VALID,0,VALID,97.0766,VALID,0,VALID,20.0163,VALID,120,VALID,0,
2013-03-19, 02:46:04,VALID,915.57,VALID,0,VALID,97.0918,VALID,0,VALID,19.9968,VALID,140,VALID,0,
2013-03-19, 02:47:04,VALID,915.606,VALID,0,VALID,97.0994,VALID,0,VALID,19.9773,VALID,163,VALID,0,
2013-03-19, 02:48:04,VALID,915.588,VALID,0,VALID,97.0994,VALID,0,VALID,19.9758,VALID,171,VALID,0,
2013-03-19, 02:49:04,VALID,915.569,VALID,0,VALID,97.0918,VALID,0,VALID,19.9578,VALID,171,VALID,0,
2013-03-19, 02:50:04,VALID,915.565,VALID,0,VALID,97.1071,VALID,0,VALID,19.9773,VALID,173,VALID,0,
2013-03-19, 02:51:04,VALID,915.561,VALID,0,VALID,97.0918,VALID,0,VALID,19.9773,VALID,175,VALID,0,
2013-03-19, 02:52:04,VALID,915.537,VALID,0,VALID,97.1147,VALID,0,VALID,19.9773,VALID,173,VALID,0,
2013-03-19, 02:53:04,VALID,915.548,VALID,0,VALID,97.1147,VALID,0,VALID,19.9953,VALID,173,VALID,0,
2013-03-19, 02:54:04,VALID,915.558,VALID,0,VALID,97.0994,VALID,0,VALID,19.9953,VALID,173,VALID,0,
2013-03-19, 02:55:04,VALID,915.557,VALID,0,VALID,97.1071,VALID,0,VALID,19.9758,VALID,173,VALID,0,
2013-03-19, 02:56:04,VALID,915.523,VALID,0,VALID,97.1147,VALID,0,VALID,19.9758,VALID,173,VALID,0,
2013-03-19, 02:57:04,VALID,915.582,VALID,0,VALID,97.1071,VALID,0,VALID,19.9968,VALID,173,VALID,0,
2013-03-19, 02:58:04,VALID,915.542,VALID,0,VALID,97.1071,VALID,0,VALID,19.9968,VALID,173,VALID,0,
2013-03-19, 02:59:04,VALID,915.552,VALID,0,VALID,97.1071,VALID,0,VALID,20.0163,VALID,173,VALID,0,
2013-03-19, 03:00:04,VALID,915.556,VALID,0,VALID,97.1147,VALID,0,VALID,20.0148,VALID,173,VALID,0,
2013-03-19, 03:01:04,VALID,915.526,VALID,0,VALID,97.1223,VALID,0,VALID,20.0148,VALID,173,VALID,0,
2013-03-19, 03:02:04,VALID,915.552,VALID,0,VALID,97.0994,VALID,0,VALID,19.9953,VALID,173,VALID,0,
2013-03-19, 03:03:04,VALID,915.57,VALID,0,VALID,97.1147,VALID,0,VALID,20.0163,VALID,173,VALID,0,
2013-03-19, 03:04:04,VALID,915.552,VALID,0,VALID,97.1223,VALID,0,VALID,19.9758,VALID,160,VALID,0,
2013-03-19, 03:05:04,VALID,915.559,VALID,0,VALID,97.1071,VALID,0,VALID,19.9563,VALID,142,VALID,0,
2013-03-19, 03:06:04,VALID,915.578,VALID,0,VALID,97.1223,VALID,0,VALID,19.9773,VALID,142,VALID,0,
2013-03-19, 03:07:04,VALID,915.569,VALID,0,VALID,97.1223,VALID,0,VALID,19.9563,VALID,142,VALID,0,
2013-03-19, 03:08:04,VALID,915.57,VALID,0,VALID,97.1223,VALID,0,VALID,19.9563,VALID,152,VALID,0,
2013-03-19, 03:09:04,VALID,915.548,VALID,0,VALID,97.1299,VALID,0,VALID,19.9563,VALID,156,VALID,0,
2013-03-19, 03:10:04,VALID,915.555,VALID,0,VALID,97.1223,VALID,0,VALID,19.9368,VALID,168,VALID,0,
2013-03-19, 03:11:04,VALID,915.551,VALID,0,VALID,97.1147,VALID,0,VALID,19.9578,VALID,168,VALID,0,
2013-03-19, 03:12:04,VALID,915.566,VALID,0,VALID,97.1452,VALID,0,VALID,19.9173,VALID,168,VALID,0,
2013-03-19, 03:13:04,VALID,915.595,VALID,0,VALID,97.1223,VALID,0,VALID,19.9578,VALID,168,VALID,0,
2013-03-19, 03:14:04,VALID,915.627,VALID,0,VALID,97.1299,VALID,0,VALID,19.9578,VALID,168,VALID,0,
2013-03-19, 03:15:04,VALID,915.598,VALID,0,VALID,97.1299,VALID,0,VALID,19.9578,VALID,124,VALID,0,
2013-03-19, 03:16:04,VALID,915.622,VALID,0,VALID,97.1452,VALID,0,VALID,19.9383,VALID,125,VALID,0,
2013-03-19, 03:17:04,VALID,915.627,VALID,0,VALID,97.1376,VALID,0,VALID,19.9173,VALID,126,VALID,0,
2013-03-19, 03:18:04,VALID,915.626,VALID,0,VALID,97.1299,VALID,0,VALID,19.9188,VALID,102,VALID,0,
2013-03-19, 03:19:04,VALID,915.631,VALID,0,VALID,97.1452,VALID,0,VALID,19.9173,VALID,139,VALID,0,
2013-03-19, 03:20:04,VALID,915.663,VALID,0,VALID,97.1528,VALID,0,VALID,19.9188,VALID,114,VALID,0,
2013-03-19, 03:21:04,VALID,915.639,VALID,0,VALID,97.1376,VALID,0,VALID,19.8783,VALID,111,VALID,0,
2013-03-19, 03:22:04,VALID,915.63,VALID,0,VALID,97.1528,VALID,0,VALID,19.8978,VALID,111,VALID,0,
2013-03-19, 03:23:04,VALID,915.659,VALID,0,VALID,97.1528,VALID,0,VALID,19.9188,VALID,96,VALID,0,
2013-03-19, 03:24:04,VALID,915.629,VALID,0,VALID,97.1528,VALID,0,VALID,19.9188,VALID,95,VALID,0,
2013-03-19, 03:25:04,VALID,915.63,VALID,0,VALID,97.1452,VALID,0,VALID,19.8993,VALID,128,VALID,0,
2013-03-19, 03:26:04,VALID,915.668,VALID,0,VALID,97.1299,VALID,0,VALID,19.8783,VALID,132,VALID,0,
2013-03-19, 03:27:04,VALID,915.652,VALID,0,VALID,97.1757,VALID,0,VALID,19.8993,VALID,130,VALID,0,
2013-03-19, 03:28:04,VALID,915.675,VALID,0,VALID,97.1604,VALID,0,VALID,19.8798,VALID,98,VALID,0,
2013-03-19, 03:29:04,VALID,915.687,VALID,0,VALID,97.1528,VALID,0,VALID,19.8198,VALID,74,VALID,0,
2013-03-19, 03:30:04,VALID,915.692,VALID,0,VALID,97.1681,VALID,0,VALID,19.8198,VALID,97,VALID,0,
2013-03-19, 03:31:04,VALID,915.708,VALID,0,VALID,97.1604,VALID,0,VALID,19.8003,VALID,115,VALID,0,
2013-03-19, 03:32:04,VALID,915.67,VALID,0,VALID,97.1604,VALID,0,VALID,19.8003,VALID,126,VALID,0,
2013-03-19, 03:33:04,VALID,915.689,VALID,0,VALID,97.1681,VALID,0,VALID,19.7808,VALID,148,VALID,0,
2013-03-19, 03:34:04,VALID,915.685,VALID,0,VALID,97.1681,VALID,0,VALID,19.7808,VALID,157,VALID,0,
2013-03-19, 03:35:04,VALID,915.671,VALID,0,VALID,97.1604,VALID,0,VALID,19.7808,VALID,112,VALID,0,
2013-03-19, 03:36:04,VALID,915.683,VALID,0,VALID,97.1757,VALID,0,VALID,19.8213,VALID,145,VALID,0,
2013-03-19, 03:37:04,VALID,915.675,VALID,0,VALID,97.1833,VALID,0,VALID,19.8198,VALID,178,VALID,0,
2013-03-19, 03:38:04,VALID,915.685,VALID,0,VALID,97.1604,VALID,0,VALID,19.8603,VALID,177,VALID,0,
2013-03-19, 03:39:04,VALID,915.68,VALID,0,VALID,97.1909,VALID,0,VALID,19.8603,VALID,106,VALID,0,
2013-03-19, 03:40:04,VALID,915.637,VALID,0,VALID,97.1833,VALID,0,VALID,19.8198,VALID,120,VALID,0,
2013-03-19, 03:41:04,VALID,915.647,VALID,0,VALID,97.1833,VALID,0,VALID,19.7808,VALID,129,VALID,0,
2013-03-19, 03:42:04,VALID,915.634,VALID,0,VALID,97.1833,VALID,0,VALID,19.7808,VALID,126,VALID,0,
2013-03-19, 03:43:04,VALID,915.621,VALID,0,VALID,97.1909,VALID,0,VALID,19.7808,VALID,131,VALID,0,
2013-03-19, 03:44:04,VALID,915.612,VALID,0,VALID,97.1833,VALID,0,VALID,19.7808,VALID,138,VALID,0,
2013-03-19, 03:45:04,VALID,915.602,VALID,0,VALID,97.1909,VALID,0,VALID,19.7808,VALID,129,VALID,0,
2013-03-19, 03:46:04,VALID,915.611,VALID,0,VALID,97.2138,VALID,0,VALID,19.8018,VALID,119,VALID,0,
2013-03-19, 03:47:04,VALID,915.615,VALID,0,VALID,97.1833,VALID,0,VALID,19.8018,VALID,170,VALID,0,
2013-03-19, 03:48:04,VALID,915.643,VALID,0,VALID,97.1986,VALID,0,VALID,19.8018,VALID,129,VALID,0,
2013-03-19, 03:49:04,VALID,915.657,VALID,0,VALID,97.2062,VALID,0,VALID,19.8018,VALID,108,VALID,0,
2013-03-19, 03:50:04,VALID,915.697,VALID,0,VALID,97.2062,VALID,0,VALID,19.8018,VALID,119,VALID,0,
2013-03-19, 03:51:04,VALID,915.692,VALID,0,VALID,97.1986,VALID,0,VALID,19.8018,VALID,124,VALID,0,
2013-03-19, 03:52:04,VALID,915.689,VALID,0,VALID,97.1986,VALID,0,VALID,19.7808,VALID,127,VALID,0,
2013-03-19, 03:53:04,VALID,915.645,VALID,0,VALID,97.2062,VALID,0,VALID,19.8003,VALID,124,VALID,0,
2013-03-19, 03:54:04,VALID,915.664,VALID,0,VALID,97.1986,VALID,0,VALID,19.8018,VALID,117,VALID,0,
2013-03-19, 03:55:04,VALID,915.684,VALID,0,VALID,97.1909,VALID,0,VALID,19.8018,VALID,132,VALID,0,
2013-03-19, 03:56:04,VALID,915.68,VALID,0,VALID,97.2062,VALID,0,VALID,19.8003,VALID,117,VALID,0,
2013-03-19, 03:57:04,VALID,915.715,VALID,0,VALID,97.1986,VALID,0,VALID,19.7808,VALID,119,VALID,0,
2013-03-19, 03:58:04,VALID,915.707,VALID,0,VALID,97.2138,VALID,0,VALID,19.8018,VALID,129,VALID,0,
2013-03-19, 03:59:04,VALID,915.719,VALID,0,VALID,97.2214,VALID,0,VALID,19.8018,VALID,128,VALID,0,